Ponca City, OK

12:29 AM CDT on April 20, 2018 (GMT -0500)
Ponca City Municipal

Weather History for KPNC - November, 2012

Change the Weather History Date:

Sunday, November 18, 2012

  Actual Average Record
Temperature  
Mean Temperature 57 °F -  
Max Temperature 64 °F 61 °F 76 °F (1999)
Min Temperature 50 °F 40 °F 10 °F (2014)
Degree Days  
Heating Degree Days 8    
Growing Degree Days 7 (Base 50)    
Moisture  
Dew Point 33 °F    
Average Humidity 44    
Maximum Humidity 77    
Minimum Humidity 31    
Precipitation  
Precipitation 0.01 in - - ()
Sea Level Pressure  
Sea Level Pressure 30.16 in    
Wind  
Wind Speed 15 mph (SSE)    
Max Wind Speed 24 mph    
Max Gust Speed 31 mph    
Visibility 10 miles    
Events Rain    
Averages and records for this station are not official NWS values.
T = Trace of Precipitation, MM = Missing Value Source: NWS Daily Summary

Daily Weather History Graph

Daily Weather History Graph

Search for Another Location

Airport or City:

Astronomy

Nov. 18, 2012 Rise Set
Actual Time 7:10 AM CST 5:17 PM CST
Civil Twilight 6:42 AM CST 5:44 PM CST
Nautical Twilight 6:10 AM CST 6:16 PM CST
Astronomical Twilight 5:40 AM CST 6:47 PM CST
Moon 11:39 AM CST (11/18) 10:35 PM CST (11/18)
Length of Visible Light 11h 02m
Length of Day
10h 07m
Waxing Crescent, 30% of the Moon is Illuminated
Nov 18
Waxing Crescent
Nov 20
First Quarter
Nov 28
Full
Dec 6
Last Quarter
Dec 13
New

Hourly Weather History & Observations

Time (CST) Temp. Dew Point Humidity Pressure Visibility Wind Dir Wind Speed Gust Speed Precip Events Conditions
12:53 AM 50.0 °F 27.0 °F 41% 30.23 in 10.0 mi SSE 12.7 mph 23.0 mph N/A   Clear
1:53 AM 50.0 °F 27.0 °F 41% 30.22 in 10.0 mi SSE 12.7 mph - N/A   Clear
2:53 AM 50.0 °F 26.1 °F 39% 30.21 in 10.0 mi SSE 11.5 mph - N/A   Clear
3:53 AM 50.0 °F 27.0 °F 41% 30.21 in 10.0 mi SSE 13.8 mph - N/A   Clear
4:53 AM 50.0 °F 28.0 °F 43% 30.20 in 10.0 mi SSE 13.8 mph - N/A   Overcast
5:53 AM 51.1 °F 30.0 °F 44% 30.20 in 10.0 mi SSE 16.1 mph - N/A   Overcast
6:53 AM 51.1 °F 30.0 °F 44% 30.20 in 10.0 mi SSE 17.3 mph 23.0 mph N/A   Mostly Cloudy
7:53 AM 50.0 °F 30.9 °F 48% 30.21 in 10.0 mi SSE 17.3 mph - N/A   Overcast
8:53 AM 52.0 °F 32.0 °F 47% 30.22 in 10.0 mi SSE 11.5 mph 21.9 mph N/A   Overcast
9:53 AM 55.0 °F 33.1 °F 43% 30.22 in 10.0 mi South 12.7 mph 21.9 mph N/A   Overcast
10:53 AM 59.0 °F 33.1 °F 38% 30.19 in 10.0 mi SSE 15.0 mph 24.2 mph N/A   Overcast
11:53 AM 63.0 °F 33.1 °F 33% 30.16 in 10.0 mi SSE 17.3 mph 24.2 mph N/A   Overcast
12:53 PM 64.0 °F 34.0 °F 33% 30.13 in 10.0 mi South 15.0 mph 28.8 mph N/A   Overcast
1:53 PM 64.0 °F 33.1 °F 31% 30.10 in 10.0 mi South 20.7 mph 31.1 mph N/A   Scattered Clouds
2:53 PM 64.0 °F 34.0 °F 33% 30.08 in 10.0 mi SSE 24.2 mph 29.9 mph N/A   Mostly Cloudy
3:53 PM 64.9 °F 34.0 °F 32% 30.08 in 10.0 mi SSE 23.0 mph 26.5 mph N/A   Clear
4:53 PM 62.1 °F 34.0 °F 35% 30.10 in 10.0 mi South 15.0 mph 25.3 mph N/A   Clear
5:53 PM 60.1 °F 34.0 °F 38% 30.10 in 10.0 mi South 15.0 mph 25.3 mph N/A   Clear
6:53 PM 57.9 °F 34.0 °F 41% 30.12 in 10.0 mi SSE 13.8 mph 21.9 mph N/A   Clear
7:53 PM 57.9 °F 35.1 °F 42% 30.12 in 10.0 mi SSE 17.3 mph 24.2 mph N/A   Mostly Cloudy
8:53 PM 57.0 °F 37.9 °F 49% 30.12 in 10.0 mi South 15.0 mph 20.7 mph 0.00 in Rain Light Rain
9:53 PM 55.0 °F 41.0 °F 59% 30.12 in 10.0 mi SSE 16.1 mph 21.9 mph 0.00 in Rain Light Rain
10:53 PM 52.0 °F 44.1 °F 74% 30.12 in 10.0 mi SSE 12.7 mph 24.2 mph 0.01 in Rain Light Rain
11:53 PM 51.1 °F 44.1 °F 77% 30.12 in 10.0 mi SSE 12.7 mph - 0.00 in Rain Light Rain